QPF
0.02 0.01 0.01 0.01 0.01 0.01 0.01 0.02 0.02 0.02 0.01 0.01 0.00 0.00 0.00 0.00 0.00 0.01 0.01 0.01 0.01 0.01 0.01 0.01 0.02 0.02 0.02 0.02 0.03 0.03 0.05 0.07 0.07 0.07 0.06 0.04 0.04 0.04 0.03 0.05 0.05 0.03 0.02
0.02 0.01 0.02 0.03 0.03 0.02 0.02 0.02 0.02 0.01 0.01 0.00 0.00 0.00 0.00 0.00 0.00 0.00 0.00 0.01 0.02 0.01 0.01 0.01 0.01 0.01 0.02 0.02 0.03 0.03 0.03 0.05 0.06 0.05 0.05 0.04 0.03 0.04 0.03 0.03 0.04 0.04 0.03
0.03 0.02 0.03 0.04 0.04 0.03 0.02 0.02 0.01 0.01 0.01 0.00 0.00 0.00 0.00 0.00 0.00 0.00 0.00 0.01 0.02 0.02 0.01 0.01 0.01 0.02 0.02 0.02 0.02 0.02 0.03 0.04 0.05 0.05 0.04 0.04 0.04 0.04 0.04 0.03 0.05 0.04 0.03
0.04 0.04 0.03 0.03 0.02 0.03 0.02 0.02 0.01 0.01 0.01 0.01 0.01 0.01 0.01 0.01 0.01 0.00 0.00 0.00 0.01 0.02 0.02 0.02 0.03 0.03 0.02 0.03 0.03 0.03 0.03 0.04 0.05 0.06 0.06 0.05 0.05 0.05 0.05 0.03 0.03 0.05 0.04
0.04 0.04 0.03 0.02 0.02 0.02 0.02 0.02 0.03 0.02 0.02 0.02 0.01 0.01 0.01 0.01 0.01 0.01 0.01 0.01 0.01 0.01 0.02 0.02 0.03 0.04 0.04 0.04 0.04 0.04 0.04 0.04 0.05 0.06 0.08 0.07 0.07 0.07 0.06 0.04 0.03 0.03 0.04
0.02 0.02 0.02 0.02 0.02 0.02 0.02 0.02 0.02 0.03 0.04 0.04 0.03 0.02 0.01 0.01 0.01 0.02 0.02 0.02 0.02 0.02 0.03 0.04 0.04 0.05 0.06 0.06 0.05 0.04 0.03 0.04 0.05 0.06 0.09 0.10 0.08 0.08 0.07 0.05 0.03 0.02 0.03
0.01 0.01 0.01 0.01 0.01 0.01 0.02 0.02 0.02 0.02 0.03 0.03 0.02 0.02 0.01 0.01 0.02 0.02 0.02 0.02 0.02 0.03 0.04 0.05 0.06 0.06 0.06 0.06 0.06 0.06 0.05 0.04 0.04 0.05 0.07 0.10 0.09 0.09 0.08 0.06 0.05 0.03 0.03
0.01 0.00 0.00 0.00 0.00 0.01 0.01 0.01 0.01 0.01 0.01 0.01 0.02 0.02 0.02 0.02 0.02 0.02 0.03 0.03 0.03 0.03 0.04 0.04 0.06 0.07 0.07 0.06 0.05 0.04 0.05 0.06 0.06 0.05 0.05 0.07 0.10 0.09 0.08 0.07 0.06 0.05 0.04
0.01 0.01 0.01 0.00 0.00 0.00 0.00 0.00 0.01 0.01 0.01 0.01 0.01 0.01 0.02 0.02 0.03 0.04 0.04 0.05 0.04 0.03 0.03 0.03 0.04 0.05 0.06 0.06 0.04 0.04 0.03 0.03 0.04 0.05 0.04 0.04 0.06 0.09 0.08 0.07 0.06 0.05 0.05
0.00 0.00 0.00 0.00 0.00 0.00 0.00 0.00 0.01 0.01 0.01 0.01 0.01 0.01 0.02 0.02 0.04 0.05 0.05 0.04 0.03 0.03 0.03 0.03 0.03 0.04 0.06 0.05 0.03 0.03 0.03 0.03 0.03 0.03 0.03 0.03 0.03 0.06 0.08 0.05 0.04 0.05 0.05
0.00 0.00 0.00 0.00 0.00 0.00 0.01 0.01 0.01 0.01 0.01 0.01 0.02 0.02 0.02 0.03 0.04 0.05 0.04 0.03 0.03 0.02 0.03 0.03 0.03 0.03 0.04 0.04 0.03 0.02 0.03 0.03 0.03 0.03 0.03 0.03 0.03 0.04 0.06 0.05 0.04 0.04 0.04
0.01 0.01 0.00 0.00 0.00 0.00 0.00 0.00 0.00 0.01 0.01 0.02 0.02 0.02 0.02 0.02 0.03 0.03 0.03 0.03 0.03 0.02 0.02 0.02 0.03 0.03 0.03 0.03 0.03 0.02 0.02 0.02 0.02 0.02 0.02 0.03 0.03 0.04 0.04 0.04 0.04 0.04 0.05
0.01 0.00 0.00 0.00 0.00 0.00 0.00 0.00 0.00 0.00 0.01 0.01 0.01 0.02 0.02 0.02 0.02 0.02 0.02 0.02 0.02 0.02 0.03 0.03 0.03 0.03 0.03 0.03 0.03 0.03 0.03 0.02 0.02 0.02 0.02 0.02 0.02 0.03 0.03 0.03 0.04 0.04 0.04
0.00 0.00 0.00 0.00 0.00 0.00 0.00 0.00 0.01 0.01 0.01 0.01 0.01 0.02 0.02 0.02 0.02 0.02 0.02 0.02 0.02 0.02 0.02 0.02 0.02 0.02 0.01 0.01 0.02 0.02 0.03 0.03 0.02 0.02 0.02 0.01 0.02 0.04 0.04 0.03 0.03 0.04 0.05
0.00 0.00 0.00 0.00 0.00 0.00 0.01 0.01 0.01 0.01 0.02 0.02 0.02 0.03 0.02 0.02 0.03 0.03 0.02 0.02 0.02 0.02 0.02 0.01 0.01 0.01 0.01 0.01 0.01 0.01 0.02 0.03 0.02 0.02 0.02 0.02 0.02 0.04 0.06 0.05 0.05 0.04 0.04
0.00 0.00 0.00 0.00 0.00 0.00 0.01 0.01 0.01 0.01 0.01 0.02 0.03 0.03 0.03 0.03 0.03 0.03 0.02 0.02 0.02 0.02 0.02 0.01 0.01 0.01 0.01 0.01 0.01 0.01 0.01 0.02 0.02 0.02 0.02 0.02 0.03 0.04 0.06 0.07 0.06 0.05 0.05
0.00 0.00 0.01 0.00 0.00 0.00 0.00 0.00 0.01 0.01 0.01 0.01 0.02 0.03 0.03 0.03 0.02 0.02 0.01 0.02 0.02 0.01 0.01 0.01 0.01 0.01 0.01 0.01 0.02 0.02 0.02 0.02 0.02 0.03 0.03 0.03 0.04 0.04 0.05 0.06 0.07 0.08 0.08
0.01 0.01 0.01 0.01 0.01 0.00 0.00 0.01 0.01 0.01 0.01 0.01 0.02 0.03 0.04 0.03 0.02 0.01 0.01 0.01 0.01 0.01 0.01 0.01 0.01 0.01 0.01 0.02 0.02 0.03 0.03 0.03 0.03 0.02 0.03 0.03 0.03 0.03 0.04 0.05 0.05 0.07 0.08
0.02 0.02 0.02 0.01 0.01 0.01 0.00 0.00 0.00 0.01 0.01 0.01 0.01 0.02 0.03 0.03 0.03 0.02 0.02 0.01 0.01 0.02 0.02 0.02 0.02 0.02 0.02 0.02 0.03 0.03 0.03 0.03 0.03 0.03 0.02 0.02 0.02 0.03 0.03 0.04 0.04 0.05 0.07
0.02 0.02 0.02 0.02 0.02 0.02 0.01 0.01 0.01 0.01 0.01 0.01 0.01 0.02 0.03 0.03 0.04 0.04 0.03 0.02 0.03 0.03 0.03 0.03 0.04 0.04 0.04 0.04 0.03 0.02 0.02 0.02 0.02 0.02 0.02 0.02 0.02 0.02 0.03 0.03 0.03 0.03 0.04
0.03 0.03 0.02 0.02 0.02 0.02 0.02 0.01 0.01 0.01 0.01 0.01 0.01 0.02 0.02 0.02 0.03 0.03 0.03 0.03 0.03 0.04 0.03 0.03 0.03 0.02 0.02 0.03 0.03 0.02 0.02 0.02 0.02 0.02 0.02 0.02 0.02 0.02 0.02 0.02 0.02 0.03 0.03
0.02 0.02 0.03 0.03 0.02 0.02 0.02 0.02 0.01 0.01 0.01 0.02 0.02 0.02 0.02 0.02 0.02 0.02 0.02 0.02 0.02 0.01 0.01 0.01 0.01 0.01 0.02 0.03 0.02 0.02 0.02 0.02 0.02 0.02 0.02 0.02 0.02 0.02 0.02 0.02 0.01 0.01 0.02
0.02 0.01 0.02 0.02 0.02 0.02 0.02 0.01 0.02 0.01 0.02 0.02 0.02 0.02 0.02 0.01 0.01 0.01 0.01 0.01 0.01 0.01 0.01 0.01 0.01 0.01 0.02 0.02 0.02 0.02 0.02 0.02 0.02 0.02 0.03 0.03 0.02 0.02 0.02 0.02 0.02 0.02 0.02
0.01 0.01 0.01 0.01 0.01 0.01 0.01 0.01 0.01 0.02 0.02 0.02 0.01 0.01 0.02 0.02 0.02 0.02 0.02 0.01 0.01 0.01 0.01 0.01 0.01 0.01 0.01 0.01 0.01 0.02 0.02 0.02 0.02 0.02 0.02 0.02 0.03 0.03 0.03 0.03 0.03 0.02 0.02
0.02 0.01 0.01 0.01 0.01 0.01 0.01 0.01 0.01 0.01 0.01 0.01 0.01 0.01 0.01 0.01 0.01 0.01 0.01 0.01 0.01 0.01 0.01 0.01 0.01 0.02 0.02 0.01 0.02 0.02 0.02 0.02 0.02 0.03 0.02 0.02 0.02 0.03 0.03 0.03 0.03 0.03 0.02
0.02 0.02 0.01 0.01 0.01 0.01 0.01 0.01 0.01 0.01 0.01 0.01 0.01 0.01 0.01 0.01 0.01 0.02 0.01 0.01 0.02 0.01 0.01 0.01 0.01 0.02 0.02 0.02 0.02 0.02 0.02 0.02 0.02 0.03 0.03 0.02 0.02 0.02 0.02 0.03 0.03 0.03 0.03
MSLP
1006.20 1006.63 1007.10 1007.57 1007.98 1008.32 1008.60 1008.84 1009.07 1009.32 1009.62 1010.00 1010.44 1010.93 1011.46 1011.97 1012.46 1012.91 1013.30 1013.64 1013.94 1014.21 1014.46 1014.71 1014.95 1015.19 1015.42 1015.63 1015.83 1016.01 1016.19 1016.37 1016.55 1016.75 1016.97 1017.19 1017.41 1017.61 1017.76 1017.87 1017.93 1017.93 1017.89
1006.34 1006.70 1007.10 1007.49 1007.84 1008.11 1008.33 1008.51 1008.67 1008.87 1009.11 1009.43 1009.81 1010.26 1010.74 1011.23 1011.71 1012.15 1012.55 1012.91 1013.23 1013.53 1013.82 1014.10 1014.38 1014.66 1014.94 1015.20 1015.45 1015.68 1015.90 1016.11 1016.33 1016.55 1016.78 1017.01 1017.25 1017.46 1017.65 1017.79 1017.90 1017.96 1017.99
1006.63 1006.91 1007.24 1007.55 1007.82 1008.02 1008.17 1008.28 1008.38 1008.50 1008.67 1008.91 1009.23 1009.61 1010.03 1010.47 1010.90 1011.32 1011.70 1012.05 1012.38 1012.69 1013.01 1013.32 1013.65 1013.98 1014.31 1014.63 1014.94 1015.23 1015.51 1015.77 1016.02 1016.28 1016.53 1016.77 1017.01 1017.24 1017.45 1017.63 1017.78 1017.90 1017.99
1007.00 1007.21 1007.44 1007.67 1007.85 1007.98 1008.05 1008.09 1008.12 1008.16 1008.26 1008.43 1008.66 1008.96 1009.30 1009.68 1010.06 1010.42 1010.78 1011.11 1011.43 1011.76 1012.08 1012.43 1012.79 1013.16 1013.55 1013.93 1014.31 1014.67 1015.01 1015.33 1015.63 1015.92 1016.19 1016.46 1016.72 1016.96 1017.18 1017.39 1017.57 1017.74 1017.90
1007.40 1007.51 1007.64 1007.76 1007.85 1007.89 1007.89 1007.86 1007.82 1007.81 1007.84 1007.92 1008.08 1008.30 1008.57 1008.87 1009.19 1009.51 1009.83 1010.14 1010.45 1010.77 1011.11 1011.48 1011.87 1012.28 1012.71 1013.15 1013.59 1014.01 1014.41 1014.78 1015.13 1015.46 1015.77 1016.06 1016.33 1016.59 1016.84 1017.07 1017.28 1017.49 1017.70
1007.78 1007.77 1007.77 1007.78 1007.77 1007.72 1007.65 1007.56 1007.46 1007.39 1007.36 1007.39 1007.48 1007.63 1007.83 1008.07 1008.33 1008.61 1008.89 1009.18 1009.48 1009.81 1010.16 1010.54 1010.95 1011.40 1011.86 1012.34 1012.81 1013.28 1013.72 1014.14 1014.53 1014.89 1015.23 1015.55 1015.84 1016.12 1016.39 1016.65 1016.90 1017.14 1017.38
1008.10 1007.95 1007.83 1007.71 1007.60 1007.47 1007.33 1007.18 1007.05 1006.93 1006.86 1006.84 1006.88 1006.97 1007.11 1007.29 1007.50 1007.74 1008.00 1008.28 1008.58 1008.91 1009.27 1009.67 1010.09 1010.55 1011.03 1011.53 1012.02 1012.50 1012.97 1013.41 1013.83 1014.21 1014.58 1014.92 1015.24 1015.55 1015.85 1016.13 1016.41 1016.68 1016.95
1008.34 1008.06 1007.81 1007.58 1007.37 1007.16 1006.97 1006.78 1006.62 1006.48 1006.38 1006.32 1006.31 1006.35 1006.44 1006.57 1006.74 1006.95 1007.19 1007.46 1007.76 1008.10 1008.47 1008.88 1009.31 1009.77 1010.25 1010.74 1011.23 1011.71 1012.17 1012.61 1013.03 1013.43 1013.82 1014.18 1014.53 1014.87 1015.20 1015.52 1015.82 1016.12 1016.41
1008.52 1008.13 1007.77 1007.44 1007.15 1006.90 1006.66 1006.45 1006.27 1006.11 1005.98 1005.88 1005.83 1005.82 1005.85 1005.93 1006.06 1006.23 1006.45 1006.71 1007.02 1007.37 1007.75 1008.16 1008.60 1009.06 1009.52 1009.99 1010.45 1010.91 1011.34 1011.77 1012.18 1012.58 1012.97 1013.35 1013.73 1014.10 1014.47 1014.83 1015.17 1015.50 1015.80
1008.66 1008.19 1007.75 1007.37 1007.03 1006.74 1006.49 1006.27 1006.07 1005.90 1005.74 1005.61 1005.50 1005.42 1005.39 1005.41 1005.48 1005.61 1005.79 1006.04 1006.34 1006.69 1007.08 1007.50 1007.94 1008.38 1008.83 1009.27 1009.69 1010.11 1010.51 1010.90 1011.29 1011.68 1012.07 1012.47 1012.88 1013.29 1013.70 1014.10 1014.48 1014.84 1015.17
1008.79 1008.28 1007.81 1007.40 1007.06 1006.76 1006.52 1006.30 1006.10 1005.90 1005.71 1005.53 1005.35 1005.20 1005.08 1005.02 1005.01 1005.07 1005.21 1005.43 1005.72 1006.06 1006.45 1006.87 1007.30 1007.74 1008.16 1008.56 1008.95 1009.32 1009.68 1010.04 1010.40 1010.77 1011.16 1011.58 1012.01 1012.46 1012.91 1013.35 1013.78 1014.18 1014.53
1008.92 1008.42 1007.97 1007.58 1007.25 1006.99 1006.76 1006.55 1006.35 1006.14 1005.91 1005.67 1005.41 1005.17 1004.95 1004.78 1004.68 1004.66 1004.73 1004.90 1005.16 1005.48 1005.86 1006.28 1006.70 1007.12 1007.52 1007.90 1008.24 1008.57 1008.89 1009.21 1009.53 1009.89 1010.27 1010.69 1011.14 1011.62 1012.11 1012.60 1013.08 1013.52 1013.91
1009.07 1008.62 1008.22 1007.88 1007.61 1007.39 1007.20 1007.02 1006.82 1006.60 1006.33 1006.02 1005.68 1005.33 1005.00 1004.72 1004.51 1004.40 1004.39 1004.50 1004.70 1005.00 1005.36 1005.76 1006.17 1006.57 1006.95 1007.30 1007.61 1007.90 1008.17 1008.45 1008.74 1009.06 1009.43 1009.84 1010.30 1010.79 1011.31 1011.84 1012.35 1012.83 1013.26
1009.24 1008.86 1008.54 1008.28 1008.07 1007.91 1007.77 1007.63 1007.45 1007.21 1006.91 1006.54 1006.13 1005.68 1005.25 1004.86 1004.55 1004.34 1004.24 1004.28 1004.43 1004.69 1005.01 1005.39 1005.78 1006.16 1006.51 1006.83 1007.11 1007.35 1007.58 1007.80 1008.05 1008.33 1008.66 1009.04 1009.48 1009.97 1010.49 1011.03 1011.56 1012.07 1012.54
1009.42 1009.13 1008.89 1008.71 1008.59 1008.50 1008.42 1008.32 1008.16 1007.93 1007.61 1007.20 1006.73 1006.22 1005.70 1005.23 1004.83 1004.53 1004.36 1004.33 1004.43 1004.63 1004.92 1005.26 1005.62 1005.97 1006.29 1006.57 1006.80 1006.99 1007.16 1007.33 1007.51 1007.73 1008.00 1008.32 1008.71 1009.16 1009.65 1010.17 1010.69 1011.20 1011.68
1009.61 1009.40 1009.24 1009.15 1009.10 1009.08 1009.07 1009.01 1008.89 1008.68 1008.37 1007.96 1007.47 1006.92 1006.37 1005.84 1005.39 1005.03 1004.81 1004.72 1004.76 1004.92 1005.16 1005.45 1005.77 1006.07 1006.35 1006.58 1006.75 1006.89 1006.99 1007.08 1007.18 1007.31 1007.49 1007.73 1008.03 1008.39 1008.81 1009.26 1009.74 1010.21 1010.67
1009.84 1009.69 1009.60 1009.57 1009.59 1009.64 1009.69 1009.69 1009.62 1009.45 1009.17 1008.79 1008.31 1007.78 1007.22 1006.69 1006.22 1005.85 1005.59 1005.46 1005.46 1005.57 1005.76 1006.00 1006.26 1006.51 1006.73 1006.89 1007.00 1007.06 1007.08 1007.08 1007.09 1007.11 1007.18 1007.30 1007.48 1007.72 1008.02 1008.37 1008.76 1009.15 1009.55
1010.10 1010.00 1009.97 1009.99 1010.08 1010.18 1010.28 1010.34 1010.32 1010.21 1009.99 1009.66 1009.24 1008.75 1008.24 1007.75 1007.30 1006.93 1006.67 1006.52 1006.49 1006.55 1006.69 1006.87 1007.07 1007.25 1007.40 1007.49 1007.53 1007.51 1007.44 1007.35 1007.25 1007.16 1007.10 1007.08 1007.12 1007.22 1007.38 1007.59 1007.84 1008.12 1008.42
1010.44 1010.37 1010.38 1010.45 1010.58 1010.73 1010.87 1010.98 1011.02 1010.96 1010.81 1010.56 1010.21 1009.81 1009.37 1008.94 1008.54 1008.21 1007.96 1007.81 1007.75 1007.78 1007.86 1007.98 1008.11 1008.22 1008.29 1008.31 1008.27 1008.18 1008.03 1007.85 1007.65 1007.45 1007.27 1007.12 1007.02 1006.97 1006.97 1007.02 1007.12 1007.25 1007.42
1010.87 1010.84 1010.88 1010.98 1011.14 1011.32 1011.49 1011.64 1011.72 1011.72 1011.64 1011.46 1011.20 1010.89 1010.54 1010.18 1009.85 1009.56 1009.34 1009.19 1009.11 1009.09 1009.12 1009.18 1009.23 1009.27 1009.28 1009.23 1009.13 1008.97 1008.77 1008.52 1008.25 1007.96 1007.68 1007.42 1007.19 1007.00 1006.85 1006.75 1006.69 1006.67 1006.69
1011.41 1011.41 1011.48 1011.61 1011.78 1011.98 1012.17 1012.33 1012.44 1012.49 1012.46 1012.35 1012.17 1011.93 1011.66 1011.38 1011.11 1010.86 1010.66 1010.51 1010.40 1010.35 1010.32 1010.31 1010.30 1010.28 1010.22 1010.13 1009.98 1009.78 1009.54 1009.26 1008.94 1008.61 1008.27 1007.93 1007.61 1007.31 1007.04 1006.81 1006.61 1006.45 1006.33
1012.05 1012.09 1012.19 1012.33 1012.52 1012.71 1012.90 1013.06 1013.18 1013.25 1013.25 1013.18 1013.06 1012.89 1012.68 1012.45 1012.22 1012.00 1011.81 1011.64 1011.51 1011.40 1011.32 1011.25 1011.18 1011.10 1011.00 1010.86 1010.69 1010.48 1010.23 1009.95 1009.63 1009.29 1008.93 1008.56 1008.20 1007.84 1007.49 1007.17 1006.86 1006.59 1006.34
1012.75 1012.84 1012.96 1013.12 1013.30 1013.49 1013.66 1013.80 1013.91 1013.97 1013.98 1013.94 1013.85 1013.71 1013.53 1013.34 1013.13 1012.92 1012.71 1012.52 1012.34 1012.18 1012.03 1011.90 1011.77 1011.64 1011.50 1011.35 1011.17 1010.97 1010.74 1010.48 1010.19 1009.88 1009.54 1009.19 1008.82 1008.45 1008.07 1007.70 1007.34 1006.99 1006.65
1013.46 1013.59 1013.75 1013.91 1014.08 1014.25 1014.39 1014.51 1014.59 1014.64 1014.64 1014.60 1014.51 1014.39 1014.23 1014.03 1013.82 1013.59 1013.36 1013.12 1012.89 1012.67 1012.45 1012.26 1012.07 1011.89 1011.72 1011.55 1011.38 1011.20 1011.00 1010.78 1010.54 1010.28 1009.99 1009.67 1009.34 1008.99 1008.62 1008.24 1007.86 1007.48 1007.10
1014.12 1014.30 1014.47 1014.64 1014.80 1014.94 1015.05 1015.14 1015.20 1015.22 1015.21 1015.16 1015.07 1014.94 1014.77 1014.57 1014.34 1014.08 1013.80 1013.51 1013.21 1012.92 1012.64 1012.38 1012.13 1011.91 1011.71 1011.53 1011.35 1011.19 1011.02 1010.84 1010.64 1010.43 1010.19 1009.92 1009.63 1009.32 1008.98 1008.63 1008.26 1007.88 1007.49
1014.68 1014.89 1015.08 1015.24 1015.39 1015.51 1015.61 1015.67 1015.71 1015.72 1015.69 1015.64 1015.54 1015.41 1015.23 1015.01 1014.75 1014.45 1014.12 1013.77 1013.41 1013.05 1012.69 1012.36 1012.06 1011.79 1011.55 1011.34 1011.16 1010.99 1010.84 1010.68 1010.51 1010.33 1010.13 1009.90 1009.64 1009.36 1009.06 1008.74 1008.40 1008.04 1007.66
Thickness
5673 5671 5668 5665 5663 5660 5658 5655 5653 5651 5648 5646 5645 5643 5642 5640 5639 5637 5636 5635 5634 5634 5633 5632 5633 5633 5632 5632 5632 5632 5633 5633 5634 5636 5638 5638 5637 5637 5636 5637 5638 5637 5636
5669 5666 5663 5661 5658 5656 5653 5651 5649 5647 5645 5643 5641 5639 5637 5636 5634 5633 5632 5631 5630 5629 5629 5628 5628 5628 5628 5629 5628 5628 5629 5630 5629 5630 5631 5631 5632 5632 5632 5632 5633 5633 5633
5663 5661 5658 5656 5653 5651 5649 5647 5645 5642 5640 5638 5636 5634 5633 5631 5630 5629 5628 5627 5626 5626 5625 5625 5624 5624 5624 5625 5624 5625 5625 5626 5625 5625 5626 5625 5626 5627 5627 5627 5628 5628 5628
5658 5656 5653 5651 5649 5646 5644 5641 5639 5637 5635 5633 5631 5630 5628 5626 5625 5625 5624 5624 5623 5621 5621 5620 5620 5620 5620 5621 5620 5621 5621 5620 5620 5620 5620 5620 5620 5621 5621 5622 5622 5622 5623
5653 5650 5648 5646 5643 5641 5638 5636 5634 5631 5630 5628 5626 5624 5623 5622 5621 5619 5619 5619 5618 5616 5616 5616 5615 5615 5614 5614 5615 5616 5615 5615 5615 5615 5615 5615 5615 5614 5615 5616 5617 5618 5619
5648 5645 5642 5640 5637 5635 5633 5630 5628 5626 5624 5622 5621 5619 5617 5617 5614 5611 5611 5612 5612 5611 5610 5610 5610 5609 5608 5607 5607 5608 5608 5609 5610 5610 5610 5610 5611 5611 5611 5611 5612 5612 5612
5643 5641 5638 5634 5632 5630 5628 5625 5622 5620 5618 5616 5615 5614 5612 5611 5608 5606 5604 5606 5606 5606 5606 5605 5605 5606 5604 5605 5604 5602 5602 5602 5603 5606 5606 5606 5607 5607 5605 5606 5606 5606 5607
5638 5635 5632 5629 5626 5624 5622 5619 5617 5615 5613 5611 5609 5608 5606 5605 5602 5600 5599 5600 5601 5601 5601 5600 5600 5600 5599 5598 5599 5600 5600 5600 5598 5598 5599 5601 5601 5600 5600 5600 5600 5600 5601
5632 5629 5627 5624 5621 5618 5615 5613 5611 5608 5607 5605 5603 5602 5600 5600 5596 5594 5592 5594 5595 5595 5596 5595 5594 5594 5592 5590 5591 5594 5594 5595 5593 5591 5591 5591 5591 5591 5591 5591 5591 5591 5593
5625 5623 5621 5618 5615 5612 5609 5606 5604 5602 5600 5598 5597 5596 5595 5594 5590 5587 5585 5587 5588 5589 5589 5588 5586 5585 5583 5582 5584 5586 5587 5588 5587 5587 5585 5584 5585 5584 5583 5584 5585 5585 5587
5619 5616 5613 5610 5607 5604 5601 5599 5596 5595 5593 5591 5590 5589 5588 5586 5583 5579 5577 5578 5579 5580 5580 5579 5579 5576 5575 5574 5575 5578 5578 5578 5579 5580 5580 5580 5580 5579 5578 5578 5578 5579 5580
5610 5608 5605 5602 5599 5596 5593 5590 5589 5587 5585 5584 5582 5581 5580 5578 5575 5572 5569 5568 5568 5570 5571 5571 5570 5568 5567 5566 5566 5567 5567 5567 5570 5571 5572 5572 5572 5572 5572 5572 5571 5571 5572
5602 5600 5597 5594 5590 5588 5585 5582 5580 5578 5577 5576 5574 5572 5571 5569 5567 5563 5561 5559 5558 5559 5561 5559 5558 5557 5557 5558 5557 5557 5557 5559 5560 5561 5562 5563 5563 5563 5563 5563 5563 5562 5563
5595 5591 5588 5585 5582 5579 5576 5574 5571 5569 5568 5567 5565 5563 5562 5560 5558 5556 5554 5552 5549 5549 5549 5549 5547 5547 5547 5547 5548 5549 5549 5550 5550 5552 5553 5553 5554 5554 5554 5555 5554 5554 5554
5587 5583 5579 5576 5573 5570 5568 5565 5563 5561 5558 5556 5555 5554 5552 5551 5549 5546 5544 5544 5543 5542 5540 5540 5540 5539 5539 5539 5540 5540 5540 5539 5540 5541 5542 5544 5544 5545 5545 5545 5545 5546 5546
5578 5574 5570 5567 5564 5561 5559 5556 5551 5549 5546 5544 5542 5541 5541 5539 5537 5535 5534 5533 5531 5530 5529 5530 5530 5529 5529 5529 5529 5529 5529 5529 5530 5530 5532 5532 5533 5534 5535 5535 5535 5536 5537
5569 5565 5561 5558 5556 5553 5550 5548 5545 5541 5537 5534 5532 5530 5529 5527 5526 5524 5523 5522 5520 5519 5519 5519 5519 5519 5518 5517 5517 5517 5517 5516 5517 5518 5519 5520 5521 5522 5523 5524 5524 5525 5526
5559 5555 5552 5549 5547 5544 5542 5540 5537 5534 5531 5528 5524 5520 5518 5516 5515 5513 5513 5512 5512 5510 5510 5510 5509 5508 5507 5506 5505 5505 5505 5504 5505 5506 5508 5509 5509 5510 5511 5512 5513 5513 5514
5549 5546 5543 5540 5537 5535 5532 5530 5527 5524 5522 5519 5516 5513 5509 5507 5505 5503 5502 5504 5504 5502 5501 5500 5498 5497 5496 5496 5495 5494 5494 5494 5494 5495 5497 5497 5498 5499 5500 5500 5501 5500 5501
5539 5535 5533 5531 5528 5525 5522 5520 5517 5515 5512 5510 5507 5504 5501 5499 5499 5496 5494 5494 5494 5492 5491 5490 5488 5487 5486 5486 5485 5485 5485 5485 5485 5486 5487 5487 5488 5488 5489 5489 5489 5490 5491
5530 5526 5522 5521 5518 5515 5512 5510 5507 5504 5502 5500 5497 5493 5490 5490 5490 5488 5486 5485 5484 5483 5482 5480 5479 5478 5477 5477 5476 5476 5476 5477 5476 5476 5477 5477 5477 5477 5478 5478 5478 5478 5479
5519 5517 5514 5511 5508 5504 5502 5499 5496 5494 5492 5490 5487 5484 5480 5481 5480 5479 5477 5476 5474 5473 5472 5471 5470 5469 5468 5467 5467 5467 5467 5467 5467 5466 5466 5466 5466 5466 5466 5466 5466 5466 5467
5508 5506 5504 5501 5497 5493 5491 5489 5486 5484 5482 5480 5478 5476 5474 5472 5471 5469 5467 5466 5464 5463 5462 5461 5461 5460 5459 5459 5458 5458 5458 5458 5457 5456 5456 5455 5455 5455 5454 5454 5454 5454 5455
5498 5496 5493 5491 5488 5484 5481 5479 5476 5474 5473 5471 5469 5467 5465 5463 5461 5460 5458 5456 5455 5454 5453 5452 5451 5451 5451 5450 5450 5449 5448 5447 5446 5446 5445 5445 5444 5444 5443 5443 5443 5442 5443
5487 5486 5483 5481 5478 5475 5472 5470 5467 5465 5464 5462 5460 5458 5456 5454 5452 5450 5449 5448 5446 5445 5444 5443 5443 5442 5442 5441 5441 5439 5438 5436 5435 5434 5434 5434 5434 5433 5432 5432 5432 5432 5432
5477 5475 5473 5470 5468 5465 5463 5461 5459 5457 5455 5453 5451 5449 5447 5445 5443 5442 5440 5439 5438 5437 5436 5435 5434 5434 5433 5432 5431 5429 5428 5427 5426 5425 5424 5424 5424 5423 5422 5422 5422 5422 5421